Location: Bakov nad Jizerou
(50.4784°N, 14.9394°E)
Time: 16:33:35
(UTC+00:00)

Cosmos 2322 - Pass Details

Date: 25 October 2021
Orbit: 841 x 854 km, 71.0° (Epoch: 04 December)

Event Time Altitude Azimuth Distance (km) Brightness Sun altitude
Exits shadow 03:36:01 - 330° (NNW) 2,810 6.2 -20.2°
Reaches altitude 10° 03:36:52 10° 330° (NNW) 2,488 5.9 -20.1°
Maximum altitude 03:42:36 90° 69° (ENE) 856 3.7 -19.1°
Drops below altitude 10° 03:48:17 10° 152° (SSE) 2,464 6.4 -18.2°
Sets 03:50:43 0° 153° (SSE) 3,393 7.2 -17.9°
